| time (UTC) | temp C | wind direction | speed KPH | gust KPH | rain 1hr cm | rain 24hr cm | rain mn cm | humidity % | barometer mb |
| 20260507070423 | 6 | 350 | 0.0 | 0.0 | 0.00 | 0.00 | 0.00 | 88 | 1020.1 |
| 20260507065919 | 6 | 349 | 0.0 | 0.0 | 0.00 | 0.00 | 0.00 | 88 | 1020.3 |
| 20260507065416 | 6 | 347 | 0.0 | 0.0 | 0.00 | 0.00 | 0.00 | 87 | 1020.6 |
| 20260507064913 | 6 | 344 | 0.0 | 0.0 | 0.00 | 0.00 | 0.00 | 87 | 1020.6 |
| 20260507064411 | 6 | 344 | 0.0 | 0.0 | 0.00 | 0.00 | 0.00 | 87 | 1020.3 |
| 20260507063908 | 6 | 344 | 0.0 | 0.0 | 0.00 | 0.00 | 0.00 | 88 | 1020.4 |
| 20260507063405 | 6 | 344 | 0.0 | 0.0 | 0.00 | 0.00 | 0.00 | 88 | 1020.3 |
| 20260507062902 | 6 | 344 | 0.0 | 0.0 | 0.00 | 0.00 | 0.00 | 88 | 1020.5 |
| 20260507062359 | 6 | 344 | 0.0 | 0.0 | 0.00 | 0.00 | 0.00 | 88 | 1020.0 |
| 20260507061857 | 6 | 346 | 0.0 | 0.0 | 0.00 | 0.00 | 0.00 | 88 | 1020.0 |
| 20260507061355 | 6 | 349 | 0.0 | 0.0 | 0.00 | 0.00 | 0.00 | 88 | 1020.0 |
| 20260507060853 | 6 | 344 | 0.0 | 0.0 | 0.00 | 0.00 | 0.00 | 87 | 1020.1 |
| 20260507060349 | 6 | 344 | 0.0 | 0.0 | 0.00 | 0.00 | 0.00 | 87 | 1020.3 |
| 20260507055846 | 7 | 346 | 0.0 | 0.0 | 0.00 | 0.00 | 0.00 | 87 | 1020.1 |
| 20260507055341 | 7 | 346 | 0.0 | 0.0 | 0.00 | 0.00 | 0.00 | 86 | 1020.3 |
| 20260507054838 | 7 | 344 | 0.0 | 0.0 | 0.00 | 0.00 | 0.00 | 85 | 1020.1 |
| 20260507054334 | 7 | 344 | 0.0 | 0.0 | 0.00 | 0.00 | 0.00 | 85 | 1020.3 |
| 20260507053831 | 7 | 349 | 0.0 | 0.0 | 0.00 | 0.00 | 0.00 | 85 | 1020.0 |
| 20260507053329 | 7 | 344 | 0.0 | 0.0 | 0.00 | 0.00 | 0.00 | 84 | 1020.3 |
| 20260507052828 | 7 | 344 | 0.0 | 0.0 | 0.00 | 0.00 | 0.00 | 83 | 1020.0 |
| 20260507052324 | 7 | 344 | 0.0 | 0.0 | 0.00 | 0.00 | 0.00 | 83 | 1020.1 |
| 20260507051822 | 7 | 353 | 0.0 | 0.0 | 0.00 | 0.00 | 0.00 | 83 | 1020.3 |
| 20260507051319 | 7 | 344 | 0.0 | 0.0 | 0.00 | 0.00 | 0.00 | 83 | 1019.9 |
| 20260507050816 | 7 | 344 | 0.0 | 0.0 | 0.00 | 0.00 | 0.00 | 83 | 1019.8 |
| 20260507050312 | 7 | 347 | 0.0 | 0.0 | 0.00 | 0.00 | 0.00 | 83 | 1020.0 |
| 20260507045809 | 7 | 343 | 0.0 | 0.0 | 0.00 | 0.03 | 0.03 | 83 | 1020.0 |
| 20260507045307 | 7 | 344 | 0.0 | 0.0 | 0.00 | 0.03 | 0.03 | 83 | 1020.0 |
| 20260507044803 | 7 | 344 | 0.0 | 0.0 | 0.00 | 0.03 | 0.03 | 83 | 1019.8 |
| 20260507044300 | 8 | 346 | 0.0 | 0.0 | 0.00 | 0.03 | 0.03 | 83 | 1019.5 |
| 20260507043755 | 8 | 349 | 0.0 | 0.0 | 0.00 | 0.03 | 0.03 | 82 | 1019.6 |
| 20260507043252 | 8 | 344 | 0.0 | 0.0 | 0.00 | 0.03 | 0.03 | 82 | 1019.6 |
| 20260507042748 | 8 | 344 | 0.0 | 0.0 | 0.00 | 0.03 | 0.03 | 83 | 1019.4 |
| 20260507042244 | 8 | 344 | 0.0 | 0.0 | 0.00 | 0.03 | 0.03 | 82 | 1019.4 |
| 20260507041742 | 8 | 343 | 0.0 | 0.0 | 0.00 | 0.03 | 0.03 | 81 | 1019.6 |
| 20260507041238 | 8 | 344 | 0.0 | 0.0 | 0.00 | 0.03 | 0.03 | 81 | 1019.6 |
| 20260507040735 | 8 | 343 | 0.0 | 0.0 | 0.00 | 0.03 | 0.03 | 81 | 1019.5 |
| 20260507040231 | 8 | 344 | 0.0 | 0.0 | 0.00 | 0.03 | 0.03 | 80 | 1019.4 |
| 20260507035727 | 8 | 344 | 0.0 | 0.0 | 0.00 | 0.03 | 0.03 | 80 | 1019.5 |
| 20260507035223 | 8 | 346 | 0.0 | 0.0 | 0.00 | 0.03 | 0.03 | 79 | 1019.5 |
| 20260507034720 | 8 | 346 | 0.0 | 0.0 | 0.00 | 0.03 | 0.03 | 79 | 1019.5 |
| 20260507034217 | 9 | 346 | 0.0 | 0.0 | 0.00 | 0.03 | 0.03 | 79 | 1019.4 |
| 20260507033716 | 9 | 347 | 0.0 | 0.0 | 0.00 | 0.03 | 0.03 | 78 | 1019.6 |
| 20260507033213 | 9 | 356 | 0.0 | 0.0 | 0.00 | 0.03 | 0.03 | 76 | 1019.6 |
| 20260507032710 | 10 | 344 | 0.0 | 0.0 | 0.00 | 0.03 | 0.03 | 75 | 1019.4 |
| 20260507032206 | 10 | 344 | 0.0 | 0.0 | 0.00 | 0.03 | 0.03 | 73 | 1019.5 |
| 20260507031703 | 10 | 343 | 0.0 | 0.0 | 0.00 | 0.03 | 0.03 | 72 | 1019.5 |
| 20260507031159 | 10 | 344 | 0.0 | 0.0 | 0.00 | 0.03 | 0.03 | 72 | 1019.5 |
| 20260507030656 | 10 | 340 | 0.0 | 0.0 | 0.00 | 0.03 | 0.03 | 70 | 1019.1 |
| 20260507030154 | 10 | 345 | 0.0 | 0.0 | 0.00 | 0.03 | 0.03 | 71 | 1019.2 |
| 20260507025651 | 10 | 344 | 0.0 | 0.0 | 0.00 | 0.03 | 0.03 | 72 | 1019.0 |
| 20260507025148 | 10 | 345 | 0.0 | 0.0 | 0.00 | 0.03 | 0.03 | 71 | 1018.9 |
| 20260507024646 | 10 | 347 | 0.0 | 0.0 | 0.00 | 0.03 | 0.03 | 71 | 1019.0 |
| 20260507024143 | 11 | 343 | 0.0 | 0.0 | 0.00 | 0.03 | 0.03 | 71 | 1018.7 |
| 20260507023638 | 11 | 343 | 0.0 | 0.0 | 0.00 | 0.03 | 0.03 | 70 | 1018.8 |
| 20260507023136 | 11 | 344 | 0.0 | 0.0 | 0.00 | 0.03 | 0.03 | 70 | 1019.0 |
| 20260507022633 | 11 | 347 | 0.0 | 0.0 | 0.00 | 0.03 | 0.03 | 70 | 1018.7 |
| 20260507022128 | 11 | 341 | 0.0 | 1.6 | 0.00 | 0.03 | 0.03 | 70 | 1018.6 |
| 20260507021625 | 11 | 344 | 0.0 | 1.6 | 0.00 | 0.03 | 0.03 | 70 | 1018.5 |
| 20260507021120 | 11 | 344 | 0.0 | 1.6 | 0.00 | 0.03 | 0.03 | 70 | 1018.9 |
| 20260507020619 | 11 | 349 | 0.0 | 1.6 | 0.00 | 0.03 | 0.03 | 70 | 1018.8 |
| 20260507020115 | 11 | 344 | 0.0 | 1.6 | 0.00 | 0.03 | 0.03 | 71 | 1018.5 |
| 20260507015613 | 11 | 347 | 0.0 | 1.6 | 0.00 | 0.03 | 0.03 | 71 | 1018.7 |
| 20260507015110 | 11 | 344 | 0.0 | 0.0 | 0.00 | 0.03 | 0.03 | 71 | 1018.4 |
| 20260507014607 | 11 | 344 | 0.0 | 0.0 | 0.00 | 0.03 | 0.03 | 71 | 1018.6 |
| 20260507014103 | 11 | 346 | 0.0 | 0.0 | 0.00 | 0.03 | 0.03 | 70 | 1018.4 |
| 20260507013559 | 12 | 344 | 0.0 | 0.0 | 0.00 | 0.03 | 0.03 | 69 | 1018.7 |
| 20260507013056 | 12 | 344 | 0.0 | 0.0 | 0.00 | 0.03 | 0.03 | 68 | 1018.3 |
| 20260507012554 | 12 | 343 | 0.0 | 0.0 | 0.00 | 0.03 | 0.03 | 67 | 1018.4 |
| 20260507012044 | 12 | 344 | 0.0 | 0.0 | 0.00 | 0.03 | 0.03 | 66 | 1018.4 |
| 20260507011542 | 13 | 344 | 0.0 | 0.0 | 0.00 | 0.03 | 0.03 | 65 | 1018.2 |
| 20260507011038 | 13 | 346 | 0.0 | 0.0 | 0.00 | 0.03 | 0.03 | 64 | 1018.2 |
| 20260507010538 | 13 | 343 | 0.0 | 1.6 | 0.00 | 0.03 | 0.03 | 62 | 1018.1 |
| 20260507010034 | 13 | 347 | 0.0 | 0.0 | 0.00 | 0.03 | 0.03 | 62 | 1018.0 |
| 20260507005533 | 13 | 7 | 0.0 | 1.6 | 0.00 | 0.03 | 0.03 | 61 | 1017.9 |
| 20260507005028 | 14 | 1 | 0.0 | 1.6 | 0.00 | 0.03 | 0.03 | 60 | 1017.9 |
| 20260507004526 | 14 | 347 | 0.0 | 3.2 | 0.00 | 0.03 | 0.03 | 60 | 1018.0 |
| 20260507004023 | 14 | 16 | 0.0 | 1.6 | 0.00 | 0.03 | 0.03 | 59 | 1018.1 |
| 20260507003518 | 14 | 6 | 1.6 | 3.2 | 0.00 | 0.03 | 0.03 | 58 | 1017.9 |
| 20260507003014 | 15 | 290 | 1.6 | 3.2 | 0.00 | 0.03 | 0.03 | 56 | 1018.0 |
| 20260507002510 | 15 | 38 | 0.0 | 4.8 | 0.00 | 0.03 | 0.03 | 57 | 1018.0 |
| 20260507002007 | 15 | 356 | 1.6 | 3.2 | 0.00 | 0.03 | 0.03 | 56 | 1018.0 |
| 20260507001503 | 15 | 344 | 1.6 | 4.8 | 0.00 | 0.03 | 0.03 | 56 | 1017.7 |
| 20260507001001 | 15 | 344 | 0.0 | 1.6 | 0.00 | 0.03 | 0.03 | 56 | 1017.8 |
| 20260507000456 | 15 | 340 | 1.6 | 3.2 | 0.00 | 0.03 | 0.03 | 56 | 1017.8 |
| 20260506235952 | 15 | 347 | 0.0 | 1.6 | 0.00 | 0.03 | 0.03 | 56 | 1017.9 |
| 20260506235450 | 15 | 32 | 1.6 | 3.2 | 0.00 | 0.03 | 0.03 | 56 | 1017.6 |
| 20260506234945 | 15 | 85 | 1.6 | 3.2 | 0.00 | 0.03 | 0.03 | 55 | 1017.8 |
| 20260506234443 | 15 | 345 | 3.2 | 4.8 | 0.00 | 0.03 | 0.03 | 54 | 1017.7 |
| 20260506233940 | 16 | 322 | 3.2 | 4.8 | 0.00 | 0.03 | 0.03 | 53 | 1017.6 |
| 20260506233437 | 16 | 353 | 0.0 | 1.6 | 0.00 | 0.03 | 0.03 | 54 | 1017.7 |
| 20260506232933 | 15 | 30 | 0.0 | 3.2 | 0.00 | 0.03 | 0.03 | 55 | 1017.4 |
| 20260506232430 | 15 | 109 | 1.6 | 11.3 | 0.00 | 0.03 | 0.03 | 54 | 1017.3 |
| 20260506231925 | 16 | 51 | 0.0 | 3.2 | 0.00 | 0.03 | 0.03 | 54 | 1017.6 |
| 20260506231423 | 16 | 354 | 1.6 | 8.0 | 0.00 | 0.03 | 0.03 | 53 | 1017.3 |
| 20260506230920 | 16 | 343 | 1.6 | 3.2 | 0.00 | 0.03 | 0.03 | 53 | 1017.6 |
| 20260506230417 | 16 | 344 | 0.0 | 3.2 | 0.00 | 0.03 | 0.03 | 56 | 1017.1 |
| 20260506225913 | 16 | 0 | 1.6 | 4.8 | 0.00 | 0.03 | 0.03 | 54 | 1017.2 |
| 20260506225411 | 16 | 81 | 0.0 | 8.0 | 0.00 | 0.03 | 0.03 | 55 | 1017.1 |
| 20260506224908 | 16 | 348 | 0.0 | 4.8 | 0.00 | 0.03 | 0.03 | 55 | 1016.7 |
| 20260506224405 | 16 | 359 | 1.6 | 8.0 | 0.00 | 0.03 | 0.03 | 55 | 1016.7 |
| 20260506223901 | 16 | 99 | 3.2 | 8.0 | 0.00 | 0.03 | 0.03 | 55 | 1016.7 |
| 20260506223356 | 16 | 295 | 0.0 | 9.7 | 0.00 | 0.03 | 0.03 | 55 | 1016.5 |
| 20260506222854 | 16 | 23 | 1.6 | 4.8 | 0.00 | 0.03 | 0.03 | 56 | 1016.4 |
| 20260506222349 | 17 | 1 | 0.0 | 4.8 | 0.00 | 0.03 | 0.03 | 54 | 1016.6 |
| 20260506221847 | 16 | 344 | 0.0 | 8.0 | 0.00 | 0.03 | 0.03 | 55 | 1016.4 |
| 20260506221344 | 16 | 341 | 0.0 | 4.8 | 0.00 | 0.03 | 0.03 | 56 | 1016.4 |
| 20260506220842 | 16 | 9 | 1.6 | 3.2 | 0.00 | 0.03 | 0.03 | 57 | 1016.6 |
| 20260506220337 | 15 | 328 | 1.6 | 4.8 | 0.00 | 0.03 | 0.03 | 60 | 1016.4 |
| 20260506215834 | 15 | 73 | 1.6 | 1.6 | 0.00 | 0.03 | 0.03 | 59 | 1016.7 |
| 20260506215330 | 15 | 346 | 0.0 | 3.2 | 0.00 | 0.03 | 0.03 | 59 | 1016.8 |
| 20260506214826 | 15 | 357 | 1.6 | 4.8 | 0.00 | 0.03 | 0.03 | 58 | 1016.7 |
| 20260506214323 | 15 | 36 | 3.2 | 9.7 | 0.00 | 0.03 | 0.03 | 58 | 1016.8 |
| 20260506213821 | 15 | 107 | 4.8 | 9.7 | 0.00 | 0.03 | 0.03 | 58 | 1016.9 |
| 20260506213318 | 16 | 188 | 1.6 | 3.2 | 0.00 | 0.03 | 0.03 | 60 | 1016.9 |
| 20260506212816 | 15 | 344 | 1.6 | 4.8 | 0.00 | 0.03 | 0.03 | 59 | 1017.0 |
| 20260506212311 | 16 | 100 | 4.8 | 4.8 | 0.00 | 0.03 | 0.03 | 59 | 1016.9 |
| 20260506211806 | 16 | 98 | 0.0 | 3.2 | 0.00 | 0.03 | 0.03 | 60 | 1016.9 |
| 20260506211303 | 15 | 335 | 3.2 | 11.3 | 0.00 | 0.03 | 0.03 | 59 | 1016.9 |
| 20260506210801 | 16 | 343 | 4.8 | 9.7 | 0.00 | 0.03 | 0.03 | 59 | 1017.2 |
| 20260506210257 | 15 | 334 | 0.0 | 3.2 | 0.00 | 0.03 | 0.03 | 61 | 1017.2 |
| 20260506205754 | 15 | 22 | 4.8 | 4.8 | 0.00 | 0.03 | 0.03 | 60 | 1017.2 |
| 20260506205250 | 15 | 40 | 3.2 | 8.0 | 0.00 | 0.03 | 0.03 | 62 | 1017.4 |
| 20260506204746 | 16 | 25 | 3.2 | 8.0 | 0.00 | 0.03 | 0.03 | 59 | 1017.6 |
| 20260506204244 | 16 | 304 | 6.4 | 12.9 | 0.00 | 0.03 | 0.03 | 59 | 1017.4 |
| 20260506203742 | 16 | 65 | 3.2 | 8.0 | 0.00 | 0.03 | 0.03 | 60 | 1017.4 |
| 20260506203239 | 15 | 257 | 4.8 | 4.8 | 0.00 | 0.03 | 0.03 | 61 | 1017.6 |
| 20260506202736 | 15 | 79 | 4.8 | 9.7 | 0.00 | 0.03 | 0.03 | 62 | 1017.7 |
| 20260506202233 | 15 | 52 | 1.6 | 8.0 | 0.00 | 0.03 | 0.03 | 61 | 1017.9 |
| 20260506201730 | 15 | 21 | 1.6 | 9.7 | 0.00 | 0.03 | 0.03 | 60 | 1017.7 |
| 20260506201226 | 15 | 9 | 1.6 | 4.8 | 0.00 | 0.03 | 0.03 | 61 | 1017.9 |
| 20260506200723 | 15 | 116 | 0.0 | 1.6 | 0.00 | 0.03 | 0.03 | 62 | 1017.9 |
| 20260506200220 | 15 | 254 | 3.2 | 4.8 | 0.00 | 0.03 | 0.03 | 61 | 1018.1 |
| 20260506195716 | 15 | 336 | 1.6 | 11.3 | 0.00 | 0.03 | 0.03 | 59 | 1018.0 |
| 20260506195212 | 15 | 128 | 1.6 | 9.7 | 0.00 | 0.03 | 0.03 | 60 | 1018.2 |
| 20260506194704 | 15 | 11 | 1.6 | 4.8 | 0.00 | 0.03 | 0.03 | 57 | 1018.2 |
| 20260506194201 | 15 | 338 | 1.6 | 4.8 | 0.00 | 0.03 | 0.03 | 58 | 1018.4 |
| 20260506193658 | 16 | 92 | 0.0 | 8.0 | 0.00 | 0.03 | 0.03 | 58 | 1018.4 |
| 20260506193155 | 17 | 25 | 3.2 | 4.8 | 0.00 | 0.03 | 0.03 | 57 | 1017.8 |
| 20260506192652 | 16 | 290 | 1.6 | 4.8 | 0.00 | 0.03 | 0.03 | 59 | 1018.1 |
| 20260506192148 | 16 | 348 | 3.2 | 8.0 | 0.00 | 0.03 | 0.03 | 58 | 1018.3 |
| 20260506191645 | 16 | 272 | 1.6 | 4.8 | 0.00 | 0.03 | 0.03 | 59 | 1018.3 |
| 20260506191141 | 16 | 1 | 1.6 | 9.7 | 0.00 | 0.03 | 0.03 | 60 | 1018.2 |
| 20260506190639 | 15 | 345 | 1.6 | 8.0 | 0.00 | 0.03 | 0.03 | 63 | 1018.4 |
| 20260506190135 | 15 | 170 | 0.0 | 1.6 | 0.00 | 0.03 | 0.03 | 62 | 1018.2 |
| 20260506185632 | 15 | 352 | 0.0 | 1.6 | 0.00 | 0.03 | 0.03 | 60 | 1018.4 |
| 20260506185128 | 15 | 17 | 1.6 | 4.8 | 0.00 | 0.03 | 0.03 | 63 | 1018.2 |
| 20260506184626 | 15 | 328 | 1.6 | 8.0 | 0.00 | 0.03 | 0.03 | 63 | 1018.4 |
| 20260506184123 | 15 | 354 | 1.6 | 4.8 | 0.00 | 0.03 | 0.03 | 62 | 1018.4 |
| 20260506183620 | 16 | 355 | 3.2 | 3.2 | 0.00 | 0.03 | 0.03 | 59 | 1018.5 |
| 20260506183116 | 15 | 1 | 0.0 | 3.2 | 0.00 | 0.03 | 0.03 | 64 | 1018.7 |
| 20260506182614 | 15 | 19 | 3.2 | 4.8 | 0.00 | 0.03 | 0.03 | 64 | 1018.9 |
| 20260506182110 | 13 | 3 | 0.0 | 1.6 | 0.00 | 0.03 | 0.03 | 64 | 1018.8 |
| 20260506181608 | 13 | 345 | 0.0 | 4.8 | 0.00 | 0.03 | 0.03 | 64 | 1018.9 |
| 20260506181105 | 13 | 0 | 1.6 | 1.6 | 0.00 | 0.03 | 0.03 | 65 | 1019.4 |
| 20260506180602 | 13 | 26 | 4.8 | 4.8 | 0.00 | 0.03 | 0.03 | 65 | 1019.1 |
| 20260506180058 | 13 | 63 | 4.8 | 8.0 | 0.00 | 0.03 | 0.03 | 63 | 1019.4 |
| 20260506175554 | 14 | 110 | 0.0 | 1.6 | 0.00 | 0.03 | 0.03 | 64 | 1019.5 |
| 20260506175051 | 14 | 21 | 1.6 | 3.2 | 0.00 | 0.03 | 0.03 | 64 | 1019.4 |
| 20260506174550 | 14 | 29 | 0.0 | 3.2 | 0.00 | 0.03 | 0.03 | 63 | 1019.6 |
| 20260506174045 | 15 | 65 | 1.6 | 3.2 | 0.00 | 0.03 | 0.03 | 62 | 1019.7 |
| 20260506173543 | 15 | 340 | 0.0 | 1.6 | 0.00 | 0.03 | 0.03 | 64 | 1019.8 |
| 20260506173040 | 15 | 329 | 0.0 | 1.6 | 0.00 | 0.03 | 0.03 | 61 | 1019.8 |
| 20260506172537 | 14 | 340 | 1.6 | 3.2 | 0.00 | 0.03 | 0.03 | 64 | 1020.0 |
| 20260506172033 | 14 | 67 | 1.6 | 3.2 | 0.00 | 0.03 | 0.03 | 64 | 1019.8 |
| 20260506171531 | 13 | 340 | 0.0 | 4.8 | 0.00 | 0.03 | 0.03 | 65 | 1019.9 |
| 20260506171028 | 13 | 353 | 0.0 | 3.2 | 0.00 | 0.03 | 0.03 | 66 | 1019.8 |
| 20260506170526 | 13 | 7 | 0.0 | 8.0 | 0.00 | 0.03 | 0.03 | 66 | 1019.9 |
| 20260506170018 | 13 | 351 | 0.0 | 8.0 | 0.00 | 0.03 | 0.03 | 67 | 1020.0 |
| 20260506165516 | 13 | 317 | 1.6 | 4.8 | 0.00 | 0.03 | 0.03 | 67 | 1019.9 |
| 20260506165012 | 13 | 350 | 0.0 | 8.0 | 0.00 | 0.03 | 0.03 | 67 | 1019.9 |
| 20260506164508 | 13 | 333 | 3.2 | 4.8 | 0.00 | 0.03 | 0.03 | 65 | 1019.3 |
| 20260506164006 | 13 | 46 | 0.0 | 4.8 | 0.00 | 0.03 | 0.03 | 66 | 1019.6 |
| 20260506163502 | 13 | 358 | 0.0 | 1.6 | 0.00 | 0.03 | 0.03 | 67 | 1019.2 |
| 20260506162956 | 13 | 11 | 3.2 | 8.0 | 0.00 | 0.03 | 0.03 | 67 | 1019.3 |
| 20260506162454 | 13 | 294 | 3.2 | 4.8 | 0.00 | 0.03 | 0.03 | 68 | 1019.3 |
| 20260506161951 | 13 | 38 | 1.6 | 3.2 | 0.00 | 0.03 | 0.03 | 67 | 1019.1 |
| 20260506161449 | 13 | 346 | 4.8 | 12.9 | 0.00 | 0.03 | 0.03 | 67 | 1018.8 |
| 20260506160946 | 13 | 104 | 3.2 | 4.8 | 0.00 | 0.03 | 0.03 | 68 | 1018.9 |
| 20260506160443 | 13 | 79 | 3.2 | 4.8 | 0.00 | 0.03 | 0.03 | 69 | 1018.9 |
| 20260506155941 | 12 | 344 | 0.0 | 4.8 | 0.00 | 0.03 | 0.03 | 72 | 1018.6 |
| 20260506155438 | 12 | 90 | 1.6 | 4.8 | 0.00 | 0.03 | 0.03 | 73 | 1018.8 |
| 20260506153605 | 11 | 19 | 3.2 | 8.0 | 0.00 | 0.03 | 0.03 | 75 | 1018.8 |
| 20260506153102 | 11 | 59 | 3.2 | 9.7 | 0.00 | 0.03 | 0.03 | 75 | 1018.7 |
| 20260506152559 | 11 | 42 | 1.6 | 4.8 | 0.00 | 0.03 | 0.03 | 76 | 1018.7 |
| 20260506152057 | 10 | 70 | 4.8 | 8.0 | 0.00 | 0.03 | 0.03 | 76 | 1018.5 |
| 20260506151555 | 10 | 9 | 1.6 | 8.0 | 0.00 | 0.03 | 0.03 | 77 | 1018.6 |
| 20260506151052 | 10 | 112 | 1.6 | 9.7 | 0.00 | 0.03 | 0.03 | 78 | 1018.8 |
| 20260506150548 | 10 | 103 | 6.4 | 11.3 | 0.00 | 0.03 | 0.03 | 79 | 1018.5 |
| 20260506150045 | 10 | 90 | 3.2 | 4.8 | 0.00 | 0.03 | 0.03 | 79 | 1018.4 |
| 20260506145542 | 10 | 35 | 3.2 | 4.8 | 0.00 | 0.03 | 0.03 | 79 | 1018.8 |
| 20260506145039 | 10 | 315 | 4.8 | 4.8 | 0.00 | 0.03 | 0.03 | 78 | 1018.8 |
| 20260506144536 | 10 | 335 | 3.2 | 4.8 | 0.00 | 0.03 | 0.03 | 78 | 1018.7 |
| 20260506144033 | 10 | 53 | 3.2 | 8.0 | 0.00 | 0.03 | 0.03 | 79 | 1018.7 |
| 20260506143531 | 10 | 40 | 3.2 | 8.0 | 0.00 | 0.03 | 0.03 | 79 | 1018.7 |
| 20260506143029 | 10 | 156 | 3.2 | 4.8 | 0.00 | 0.03 | 0.03 | 79 | 1018.4 |
| 20260506142526 | 10 | 147 | 3.2 | 8.0 | 0.00 | 0.03 | 0.03 | 79 | 1018.4 |
| 20260506142025 | 10 | 46 | 1.6 | 1.6 | 0.00 | 0.03 | 0.03 | 80 | 1018.3 |
| 20260506141522 | 10 | 95 | 3.2 | 4.8 | 0.00 | 0.03 | 0.03 | 80 | 1018.3 |
| 20260506141020 | 10 | 66 | 0.0 | 4.8 | 0.00 | 0.03 | 0.03 | 80 | 1018.5 |
| 20260506140517 | 9 | 109 | 3.2 | 8.0 | 0.00 | 0.03 | 0.03 | 80 | 1018.7 |
| 20260506140015 | 9 | 42 | 3.2 | 3.2 | 0.00 | 0.03 | 0.03 | 80 | 1018.6 |
| 20260506135511 | 9 | 116 | 4.8 | 12.9 | 0.00 | 0.03 | 0.03 | 80 | 1018.4 |
| 20260506135007 | 9 | 179 | 1.6 | 14.5 | 0.00 | 0.03 | 0.03 | 81 | 1018.5 |
| 20260506134504 | 9 | 51 | 3.2 | 9.7 | 0.00 | 0.03 | 0.03 | 82 | 1018.5 |
| 20260506134000 | 9 | 289 | 0.0 | 8.0 | 0.00 | 0.03 | 0.03 | 83 | 1018.6 |
| 20260506133457 | 8 | 106 | 4.8 | 8.0 | 0.00 | 0.03 | 0.03 | 84 | 1018.5 |
| 20260506132954 | 8 | 36 | 1.6 | 4.8 | 0.00 | 0.03 | 0.03 | 85 | 1018.6 |
| 20260506132451 | 8 | 116 | 1.6 | 3.2 | 0.00 | 0.03 | 0.03 | 85 | 1018.4 |
| 20260506131948 | 8 | 323 | 1.6 | 3.2 | 0.00 | 0.03 | 0.03 | 86 | 1018.3 |
| 20260506131445 | 8 | 99 | 3.2 | 4.8 | 0.00 | 0.03 | 0.03 | 87 | 1018.3 |
| 20260506130942 | 8 | 353 | 1.6 | 3.2 | 0.00 | 0.03 | 0.03 | 87 | 1018.5 |
| 20260506130439 | 8 | 121 | 0.0 | 1.6 | 0.00 | 0.03 | 0.03 | 87 | 1018.3 |
| 20260506125936 | 8 | 9 | 1.6 | 8.0 | 0.00 | 0.03 | 0.03 | 88 | 1018.3 |
| 20260506125435 | 7 | 332 | 1.6 | 8.0 | 0.00 | 0.03 | 0.03 | 88 | 1018.3 |
| 20260506124932 | 7 | 350 | 0.0 | 8.0 | 0.00 | 0.03 | 0.03 | 89 | 1018.1 |
| 20260506124430 | 7 | 5 | 0.0 | 8.0 | 0.00 | 0.03 | 0.03 | 89 | 1018.0 |
| 20260506123927 | 7 | 54 | 1.6 | 4.8 | 0.00 | 0.03 | 0.03 | 89 | 1018.1 |
| 20260506123425 | 7 | 345 | 3.2 | 4.8 | 0.00 | 0.03 | 0.03 | 90 | 1018.4 |
| 20260506122922 | 7 | 355 | 1.6 | 3.2 | 0.00 | 0.03 | 0.03 | 90 | 1018.3 |
| 20260506122419 | 7 | 79 | 1.6 | 3.2 | 0.00 | 0.03 | 0.03 | 89 | 1017.8 |
| 20260506121918 | 7 | 13 | 6.4 | 11.3 | 0.00 | 0.03 | 0.03 | 89 | 1017.8 |
| 20260506121414 | 7 | 84 | 0.0 | 3.2 | 0.00 | 0.03 | 0.03 | 89 | 1018.1 |
| 20260506120911 | 7 | 9 | 0.0 | 4.8 | 0.00 | 0.03 | 0.03 | 89 | 1017.9 |
| 20260506120409 | 7 | 5 | 0.0 | 1.6 | 0.00 | 0.03 | 0.03 | 89 | 1017.8 |
| 20260506115906 | 7 | 56 | 4.8 | 9.7 | 0.00 | 0.03 | 0.03 | 89 | 1017.7 |
| 20260506115404 | 7 | 11 | 1.6 | 1.6 | 0.00 | 0.03 | 0.03 | 89 | 1017.4 |
| 20260506114902 | 7 | 343 | 1.6 | 4.8 | 0.00 | 0.03 | 0.03 | 89 | 1017.8 |
| 20260506114359 | 7 | 68 | 1.6 | 3.2 | 0.00 | 0.03 | 0.03 | 89 | 1017.7 |
| 20260506113858 | 7 | 71 | 1.6 | 3.2 | 0.00 | 0.03 | 0.03 | 89 | 1017.4 |
| 20260506113355 | 7 | 101 | 0.0 | 3.2 | 0.00 | 0.03 | 0.03 | 89 | 1017.3 |
| 20260506112851 | 7 | 11 | 1.6 | 4.8 | 0.00 | 0.03 | 0.03 | 89 | 1017.7 |
| 20260506112349 | 7 | 67 | 1.6 | 4.8 | 0.00 | 0.03 | 0.03 | 89 | 1017.7 |
| 20260506111846 | 7 | 88 | 3.2 | 8.0 | 0.00 | 0.03 | 0.03 | 89 | 1017.3 |
| 20260506111344 | 7 | 43 | 1.6 | 3.2 | 0.00 | 0.03 | 0.03 | 89 | 1017.4 |
| 20260506110841 | 7 | 349 | 0.0 | 1.6 | 0.00 | 0.03 | 0.03 | 89 | 1017.1 |
| 20260506110338 | 7 | 346 | 3.2 | 8.0 | 0.00 | 0.03 | 0.03 | 89 | 1017.0 |
| 20260506105835 | 7 | 275 | 0.0 | 3.2 | 0.00 | 0.03 | 0.03 | 88 | 1016.9 |
| 20260506105331 | 7 | 344 | 0.0 | 0.0 | 0.00 | 0.03 | 0.03 | 88 | 1017.0 |
| 20260506104829 | 7 | 342 | 0.0 | 4.8 | 0.00 | 0.03 | 0.03 | 88 | 1016.7 |
| 20260506104327 | 7 | 87 | 3.2 | 4.8 | 0.00 | 0.03 | 0.03 | 88 | 1016.6 |
| 20260506103824 | 7 | 323 | 0.0 | 1.6 | 0.00 | 0.03 | 0.03 | 88 | 1016.4 |
| 20260506103321 | 7 | 8 | 3.2 | 3.2 | 0.00 | 0.03 | 0.03 | 88 | 1016.2 |
| 20260506102819 | 7 | 341 | 0.0 | 3.2 | 0.00 | 0.03 | 0.03 | 88 | 1016.1 |
| 20260506102316 | 7 | 347 | 0.0 | 3.2 | 0.00 | 0.03 | 0.03 | 88 | 1016.3 |
| 20260506101814 | 7 | 345 | 0.0 | 1.6 | 0.00 | 0.03 | 0.03 | 88 | 1015.7 |
| 20260506101309 | 7 | 0 | 0.0 | 3.2 | 0.00 | 0.03 | 0.03 | 88 | 1015.6 |
| 20260506100808 | 7 | 346 | 0.0 | 3.2 | 0.00 | 0.03 | 0.03 | 88 | 1015.4 |
| 20260506100306 | 7 | 356 | 0.0 | 3.2 | 0.00 | 0.03 | 0.03 | 88 | 1015.3 |
| 20260506095804 | 7 | 105 | 3.2 | 4.8 | 0.00 | 0.03 | 0.03 | 89 | 1015.2 |
| 20260506095300 | 7 | 334 | 1.6 | 8.0 | 0.00 | 0.03 | 0.03 | 89 | 1015.1 |
| 20260506094757 | 7 | 349 | 1.6 | 3.2 | 0.00 | 0.03 | 0.03 | 89 | 1015.1 |
| 20260506094256 | 7 | 19 | 1.6 | 3.2 | 0.00 | 0.03 | 0.03 | 89 | 1014.7 |
| 20260506093754 | 7 | 351 | 3.2 | 4.8 | 0.00 | 0.03 | 0.03 | 89 | 1014.7 |
| 20260506093250 | 7 | 134 | 1.6 | 4.8 | 0.00 | 0.03 | 0.03 | 90 | 1014.6 |
| 20260506092749 | 7 | 25 | 1.6 | 1.6 | 0.00 | 0.03 | 0.03 | 90 | 1014.5 |
| 20260506092246 | 7 | 329 | 0.0 | 9.7 | 0.00 | 0.03 | 0.03 | 89 | 1014.5 |
| 20260506091743 | 7 | 115 | 3.2 | 3.2 | 0.00 | 0.03 | 0.03 | 89 | 1014.5 |
| 20260506091241 | 7 | 38 | 3.2 | 4.8 | 0.00 | 0.03 | 0.03 | 89 | 1014.7 |
| 20260506090738 | 7 | 24 | 3.2 | 8.0 | 0.00 | 0.03 | 0.03 | 89 | 1014.5 |
| 20260506090235 | 7 | 355 | 1.6 | 8.0 | 0.00 | 0.03 | 0.03 | 89 | 1014.7 |
| 20260506085732 | 7 | 111 | 1.6 | 8.0 | 0.00 | 0.03 | 0.03 | 90 | 1014.9 |
| 20260506085228 | 7 | 0 | 0.0 | 3.2 | 0.00 | 0.03 | 0.03 | 90 | 1015.1 |
| 20260506084725 | 7 | 341 | 1.6 | 4.8 | 0.00 | 0.03 | 0.03 | 90 | 1014.7 |
| 20260506084221 | 7 | 349 | 1.6 | 3.2 | 0.00 | 0.03 | 0.03 | 90 | 1014.6 |
| 20260506083718 | 7 | 0 | 1.6 | 3.2 | 0.00 | 0.03 | 0.03 | 90 | 1014.5 |
| 20260506083216 | 7 | 32 | 1.6 | 4.8 | 0.00 | 0.03 | 0.03 | 90 | 1014.7 |
| 20260506082713 | 7 | 107 | 0.0 | 3.2 | 0.00 | 0.03 | 0.03 | 90 | 1014.9 |
| 20260506082209 | 7 | 120 | 1.6 | 4.8 | 0.00 | 0.03 | 0.03 | 90 | 1014.5 |
| 20260506081706 | 7 | 347 | 1.6 | 3.2 | 0.00 | 0.03 | 0.03 | 90 | 1014.5 |
| 20260506081204 | 7 | 354 | 0.0 | 4.8 | 0.00 | 0.03 | 0.03 | 91 | 1014.2 |
| 20260506080701 | 7 | 355 | 0.0 | 1.6 | 0.00 | 0.03 | 0.03 | 91 | 1014.3 |
| 20260506080158 | 7 | 0 | 1.6 | 1.6 | 0.00 | 0.03 | 0.03 | 91 | 1013.9 |
| 20260506073142 | 7 | 343 | 1.6 | 4.8 | 0.00 | 0.03 | 0.03 | 93 | 1013.9 |
| 20260506072638 | 7 | 16 | 0.0 | 3.2 | 0.00 | 0.03 | 0.03 | 93 | 1013.9 |
| 20260506072137 | 7 | 11 | 3.2 | 4.8 | 0.00 | 0.03 | 0.03 | 93 | 1014.0 |
| 20260506071634 | 7 | 1 | 3.2 | 4.8 | 0.00 | 0.03 | 0.03 | 94 | 1013.9 |
| 20260506071131 | 7 | 6 | 1.6 | 4.8 | 0.00 | 0.03 | 0.03 | 94 | 1014.1 |